User: anonymous   Login
Location: Unspecified
(0.0000°N, 0.0000°E)
Time: 06:25:05
(UTC+02:00)
Language:

Resurs 1-3 - Orbit

View from above orbital plane
View from above orbital plane
View from above satellite
View from above satellite

Ground track
Ground track

The orbit data is extracted from the following two-line orbital elements,

1 23342U 94074A   15087.03754697  .00000945  00000-0  13571-3 0  9998
2 23342 098.1566 106.1919 0001372 117.8709 294.9901 14.78830031 97739
Epoch (UTC): 28 March 2015 00:54:04
Eccentricity: 0.0001372
inclination: 98.1566°
perigee height: 632 km
apogee height: 634 km
right ascension of ascending node: 106.1919°
argument of perigee: 117.8709°
revolutions per day: 14.78830031
mean anomaly at epoch: 294.9901°
orbit number at epoch: 9773

The dashed part of the orbit path shows where the satellite is in the earth's shadow,  

DLR